User: anonymous
Location: Haliburton Scout Reserve
(45.0900°N, 78.3200°W)
Time: 14:25:34
(UTC-04:00)
Language:

IDEFIX/ARIANE 42P - Orbit

View from above orbital plane
View from above orbital plane
View from above satellite
View from above satellite

Ground track
Ground track

The orbit data is extracted from the following two-line orbital elements,

1 27422U 02021B   14208.79115626  .00000023  00000-0  25144-4 0  5467
2 27422 098.2971 249.3437 0013697 122.2820 015.2270 14.29035011635939
Epoch (UTC): 27 July 2014 18:59:15
Eccentricity: 0.0013697
inclination: 98.2971°
perigee height: 785 km
apogee height: 805 km
right ascension of ascending node: 249.3437°
argument of perigee: 122.2820°
revolutions per day: 14.29035011
mean anomaly at epoch: 15.2270°
orbit number at epoch: 63593

The dashed part of the orbit path shows where the satellite is in the earth's shadow,  

DLR